User: anonymous   Login
Location: Unspecified
(0.0000°N, 0.0000°E)
Time: 02:35:35
(UTC+00:00)
Language:

Resurs 1-4 Rocket - Orbit

View from above orbital plane
View from above orbital plane
View from above satellite
View from above satellite

Ground track
Ground track

The orbit data is extracted from the following two-line orbital elements,

1 25400U 98043G   19140.85918748 -.00000030  00000-0  55839-5 0  9999
2 25400  98.5710  79.9219 0010780  47.5322 312.6767 14.25440519 85177
Epoch (UTC): 20 May 2019 20:37:13
Eccentricity: 0.0010780
inclination: 98.5710°
perigee height: 799 km
apogee height: 815 km
right ascension of ascending node: 79.9219°
argument of perigee: 47.5322°
revolutions per day: 14.25440519
mean anomaly at epoch: 312.6767°
orbit number at epoch: 8517

The dashed part of the orbit path shows where the satellite is in the earth's shadow,  

DLR